Terug naar catalogus

SL-12 DEB

ActiefHEO
NORAD 25805·DEBRIS·🇷🇺 Russia

Gelanceerd Sep 16, 1987 vanaf Baikonur Cosmodrome

Loading…

Volgende Passages (komende 24 uur)

TLE

VersSource: Space-Track

Epoch: Sep 9, 2026, 14:41 UTC

1 25805U 87079Q   26252.61245443  .00010870  00000-0  63751-2 0  9997
2 25805  64.8413 272.2073 5263760  33.1521 350.9647  5.08468033 57592

Volg SL-12 DEB in realtime met AllMySat

Download on the App Store